ELECTRON KICK STAGE R/B, 64057

Orbit data source: Space-Track

ELECTRON KICK STAGE R/B, 64057 is space debris in LEO originally from a launch on Sat, 17 May 2025 UTC launched from the Rocket Lab Launch Complex (RLLC). Debris objects in space refer to the collection of defunct objects orbiting the Earth. Examples of debris include non-operational satellites, rocket bodies, and fragments generated from explosions, collisions, or faulty payload assembly.

Loading next visibility...
Identifier
64057, 2025-104C
Orbit
LEO
Last TLE update
9 hours ago
Origin
Manufacturer
Rocket Lab
Mission
Spacecraft
Bus & Motor
KICK STAGE, CURIE
Mass
~42 kg wet, ~42 kg dry
Launch date (UTC)
2025-05-17 (1 month ago)
Launch vehicle
Unknown
Launch site
Rocket Lab Launch Complex (RLLC)
Object type
Payload
Rocket body
Debris
Shape & HBR
Unknown
Radar Cross Section
Medium (>0.1 m² and <1 m²)

Expand to show TLE details & history

TLE from 9 hours ago
0 ELECTRON KICK STAGE R/B
1 64057U 25104C   25169.86874679  .00118340  10610-4  10243-2 0  9993
2 64057  42.0038 102.0883 0182772 137.6954 223.8150 15.50037408  5026
Epoch: 2025-06-18T20:50Z
TLE epoch observation values (Epoch: 2025-06-18T20:50:59.722Z)
Latitude
-0.00005°
Longitude
-118.0052°
Altitude
506.944 km
Speed
7.562 km/s
True Right ascension
06h 48m 21s
True Declination
0° 00' 00"
Sunlit
Object was in daylight at epoch
Visualization orbit readout
Latitude
4.06224°
Longitude
-115.81148°
Altitude
500.991 km
Speed
7.568 km/s
Apparent Right ascension
06h 08m 25s
Apparent Declination
-17° 28' 55"
Sunlit
Object is in daylight
Visualization observer readout
Local Sidereal Time
16:59:41
Azimuth
321.505° NNW
Elevation
-63.083°
Doppler factor
1
Orbital elements
Apogee altitude
542.978 km
Perigee altitude
294.522 km
Semi-major axis
6,796.887 km
Eccentricity
0.01828
Inclination
42.0038°
RAAN
102.0883°
Arg. of periapsis
137.6954°
True anomaly
Unknown
Mean anomaly
223.815°
Eccentric anomaly
Unknown
Mean motion
3.87327 °/min
Orbital period
92.94 mins
BSTAR
0.0010243
Loading maneuver chart data...
Loading SW <> Apogee altitude chart data...
Loading historical data...
Loading historical data...
Loading historical data...
Loading historical data...
Loading historical data...
Loading historical data...
Loading historical data...
Other satellites on launch #104 in the year 2025 (2025-05-17 UTC)

ELECTRON KICK STAGE R/B Visibility forecast

Observer location: undefined°, undefined°

Span
Click to sort rows by Start time (UTC) header in descending order
Start Az.
Max El. time (UTC)
Max El. Az.
Max El.
End time (UTC)
End Az.
4 mins2025-06-19 23:24:15.667Z226.429° WSW2025-06-19 23:25:15.667Z188.38° SSW39.272°2025-06-19 23:28:15.667Z80.423° E
4 mins2025-06-20 01:01:15.667Z282.046° WNW2025-06-20 01:03:15.667Z18.066° NNE38.874°2025-06-20 01:05:15.667Z72.845° E
|